Alva Beach Observation History
Time Wind Speed Temp Pressure Rel. Hum Rain
30/10:30am ESE 10-16 kts 28.8°c 1013.7 hPa 73% 0.0mm
30/10:00am ESE 9-14 kts 28.6°c 1013.7 hPa 73% 0.0mm
30/09:30am SE 7-12 kts 28.0°c 1013.9 hPa 74% 0.0mm
30/09:00am SE 7-11 kts 27.6°c 1013.9 hPa 74% 0.0mm
30/08:30am SSE 5-10 kts 26.7°c 1013.7 hPa 78% 0.0mm
30/08:00am S 5-8 kts 25.1°c 1013.5 hPa 84% 0.0mm
30/07:30am S 5-9 kts 23.9°c 1013.2 hPa 87% 0.0mm
30/07:00am SSW 5-8 kts 23.1°c 1013.0 hPa 91% 0.0mm
30/06:30am SSW 5-6 kts 22.7°c 1012.6 hPa 91% 0.0mm
30/06:00am S 5-8 kts 23.3°c 1012.2 hPa 91% 0.0mm
30/05:30am SSW 4-7 kts 23.0°c 1012.1 hPa 91% 0.0mm
30/05:00am S 5-9 kts 23.5°c 1011.7 hPa 89% 0.0mm
30/04:30am SSE 4-9 kts 23.6°c 1011.5 hPa 91% 0.0mm
30/04:00am SSW 5-8 kts 23.7°c 1011.8 hPa 88% 0.0mm
30/03:30am SSW 5-11 kts 24.5°c 1011.9 hPa 84% 0.0mm
30/03:00am SE 9-14 kts 25.7°c 1011.6 hPa 82% 0.0mm
30/02:30am ESE 10-15 kts 25.8°c 1011.8 hPa 82% 0.0mm
30/02:00am SE 8-13 kts 26.0°c 1012.2 hPa 82% 0.0mm
30/01:30am SE 10-16 kts 26.2°c 1012.6 hPa 81% 0.0mm
30/01:00am SE 11-19 kts 26.4°c 1012.8 hPa 81% 0.0mm
30/12:30am ESE 12-19 kts 26.6°c 1013.2 hPa 81% 0.0mm
30/12:00am ESE 12-18 kts 26.6°c 1013.4 hPa 83% 0.0mm
Time Wind Speed Temp Pressure Rel. Hum Rain
29/11:30pm ESE 12-20 kts 26.9°c 1013.6 hPa 83% 0.0mm
29/11:00pm ESE 13-18 kts 26.7°c 1013.5 hPa 81% 0.0mm
29/10:30pm ESE 12-19 kts 26.7°c 1013.5 hPa 81% 0.0mm
29/10:00pm ESE 13-20 kts 26.9°c 1013.7 hPa 81% 0.0mm
29/09:30pm ESE 13-19 kts 26.8°c 1013.7 hPa 80% 0.0mm
29/09:00pm ESE 12-17 kts 27.0°c 1013.4 hPa 80% 0.0mm
29/08:30pm ESE 12-18 kts 27.0°c 1013.2 hPa 81% 0.0mm
29/08:00pm ESE 11-18 kts 26.8°c 1012.9 hPa 82% 0.0mm
29/07:30pm E 13-20 kts 27.1°c 1012.6 hPa 80% 0.0mm
29/07:00pm E 13-20 kts 27.1°c 1012.3 hPa 80% 0.0mm
29/06:30pm E 11-19 kts 27.1°c 1011.9 hPa 80% 0.0mm
29/06:00pm E 11-16 kts 27.3°c 1011.7 hPa 78% 0.0mm
29/05:30pm ESE 13-17 kts 27.5°c 1011.5 hPa 76% 0.0mm
29/05:00pm E 12-20 kts 27.7°c 1011.4 hPa 76% 0.0mm
29/04:30pm E 13-19 kts 28.1°c 1011.0 hPa 78% 0.0mm
29/04:00pm E 13-19 kts 28.2°c 1010.9 hPa 74% 0.0mm
29/03:30pm E 12-17 kts 28.4°c 1011.0 hPa 73% 0.0mm
29/03:00pm E 15-19 kts 28.4°c 1011.2 hPa 73% 0.0mm
29/02:30pm ESE 14-20 kts 28.9°c 1011.4 hPa 66% 0.0mm
29/02:00pm ESE 11-17 kts 29.7°c 1011.6 hPa 72% 0.0mm
29/01:30pm ESE 11-16 kts 29.5°c 1011.8 hPa 71% 0.0mm
29/01:00pm ESE 11-17 kts 29.2°c 1012.2 hPa 71% 0.0mm
29/12:30pm ESE 12-18 kts 29.1°c 1012.4 hPa 73% 0.0mm
29/12:00pm ESE 11-16 kts 28.9°c 1012.7 hPa 76% 0.0mm
29/11:30am ESE 12-19 kts 28.6°c 1013.0 hPa 75% 0.0mm
29/11:00am ESE 12-18 kts 28.4°c 1013.2 hPa 75% 0.0mm
29/10:30am ESE 11-19 kts 27.4°c 1013.4 hPa 77% 0.0mm
29/10:00am SE 11-18 kts 27.0°c 1013.5 hPa 80% 0.0mm
29/09:30am SE 10-16 kts 26.2°c 1013.6 hPa 83% 0.0mm
29/09:00am SE 5-12 kts 24.9°c 1013.6 hPa 89% 12.4mm
29/08:30am S 4-7 kts 24.5°c 1013.5 hPa 92% 12.2mm
29/08:00am SSW 5-8 kts 23.9°c 1013.1 hPa 93% 12.2mm
29/07:30am S 5-7 kts 23.7°c 1012.7 hPa 94% 12.2mm
29/07:00am S 4-6 kts 23.0°c 1012.5 hPa 96% 12.2mm
29/06:30am SSW 5-7 kts 22.3°c 1012.2 hPa 95% 11.2mm
29/06:00am SW 4-5 kts 22.3°c 1012.0 hPa 94% 11.2mm
29/05:30am SW 4-5 kts 22.7°c 1011.8 hPa 93% 11.2mm
29/05:00am SSW 3-4 kts 23.4°c 1011.4 hPa 93% 11.2mm
29/04:30am S 4-6 kts 22.8°c 1011.4 hPa 93% 11.2mm
29/04:00am SSW 4-7 kts 22.9°c 1010.9 hPa 92% 11.2mm
29/03:30am SSW 4-6 kts 23.5°c 1011.0 hPa 90% 11.2mm
29/03:00am S 4-7 kts 24.2°c 1011.2 hPa 87% 11.2mm
29/02:30am SE 10-16 kts 25.5°c 1011.4 hPa 82% 11.2mm
29/02:00am SE 11-17 kts 25.7°c 1011.8 hPa 83% 11.2mm
29/01:30am SE 10-15 kts 25.7°c 1011.9 hPa 82% 11.2mm
29/01:00am SE 9-14 kts 25.5°c 1012.2 hPa 82% 11.2mm
29/12:30am SE 9-16 kts 25.8°c 1012.7 hPa 83% 11.2mm
29/12:00am SE 10-15 kts 25.9°c 1013.0 hPa 81% 11.2mm
Time Wind Speed Temp Pressure Rel. Hum Rain
28/11:30pm SE 9-15 kts 26.0°c 1013.0 hPa 83% 11.2mm
28/11:00pm SE 9-15 kts 26.0°c 1013.3 hPa 81% 11.2mm
28/10:30pm SE 9-16 kts 26.2°c 1013.3 hPa 82% 11.2mm
28/10:00pm SE 9-14 kts 26.2°c 1013.3 hPa 81% 11.2mm
28/09:30pm SE 9-15 kts 26.1°c 1013.1 hPa 81% 11.2mm
28/09:00pm ESE 10-15 kts 26.4°c 1013.0 hPa 80% 11.2mm
28/08:30pm ESE 12-16 kts 26.5°c 1012.7 hPa 80% 11.2mm
28/08:00pm ESE 11-16 kts 26.2°c 1012.4 hPa 81% 11.2mm
28/07:30pm ESE 13-18 kts 26.4°c 1012.3 hPa 82% 11.2mm
28/07:00pm ESE 13-20 kts 26.4°c 1012.1 hPa 80% 11.2mm
28/06:30pm ESE 14-21 kts 26.2°c 1012.2 hPa 80% 11.2mm
28/06:00pm ESE 13-21 kts 26.3°c 1011.7 hPa 80% 11.2mm
28/05:30pm ESE 15-20 kts 26.6°c 1011.3 hPa 83% 11.2mm
28/05:00pm ESE 15-20 kts 26.8°c 1011.0 hPa 80% 11.2mm
28/04:30pm ESE 12-18 kts 27.7°c 1010.9 hPa 78% 11.2mm
28/04:00pm ESE 12-18 kts 27.4°c 1011.1 hPa 80% 11.2mm
28/03:30pm ESE 12-20 kts 27.4°c 1011.0 hPa 85% 11.2mm
28/03:00pm ESE 10-15 kts 26.6°c 1011.0 hPa 86% 11.0mm
28/02:30pm ESE 9-13 kts 26.8°c 1011.5 hPa 81% 10.4mm
28/02:00pm ESE 9-15 kts 26.6°c 1011.9 hPa 81% 10.4mm
28/01:30pm ESE 9-14 kts 26.6°c 1012.2 hPa 82% 10.4mm
28/01:00pm ESE 10-15 kts 26.9°c 1012.5 hPa 83% 10.4mm
28/12:30pm ESE 11-16 kts 26.7°c 1012.7 hPa 82% 10.4mm
28/12:00pm ESE 11-17 kts 26.6°c 1013.1 hPa 79% 10.4mm
28/11:30am E 13-18 kts 26.3°c 1013.4 hPa 80% 10.4mm
28/11:00am SE 10-17 kts 25.6°c 1013.7 hPa 88% 10.0mm
28/10:30am E 12-21 kts 25.7°c 1013.9 hPa 90% 10.0mm
28/10:00am ESE 11-16 kts 24.7°c 1014.1 hPa 94% 8.6mm
28/09:48am ESE 15-25 kts 24.4°c 1014.2 hPa 92% 5.4mm
28/09:30am SE 11-18 kts 25.4°c 1014.0 hPa 89% 0.0mm
28/09:00am SE 10-17 kts 25.8°c 1013.6 hPa 87% 0.4mm
28/08:30am SE 10-17 kts 26.3°c 1013.2 hPa 81% 0.0mm
28/08:00am SE 13-20 kts 26.1°c 1012.8 hPa 81% 0.0mm
28/07:30am SE 12-20 kts 25.9°c 1012.3 hPa 83% 0.0mm
28/07:00am SE 11-18 kts 25.0°c 1012.1 hPa 91% 0.0mm
28/06:30am SE 13-20 kts 25.1°c 1011.9 hPa 88% 0.0mm
28/06:00am S 6-9 kts 24.3°c 1011.8 hPa 88% 0.0mm
28/05:30am SE 12-19 kts 25.5°c 1011.4 hPa 82% 0.0mm
28/05:00am SE 11-19 kts 25.1°c 1011.4 hPa 86% 0.0mm
28/04:30am S 5-12 kts 23.8°c 1011.5 hPa 88% 0.0mm
28/04:00am SSW 5-10 kts 23.4°c 1011.4 hPa 88% 0.0mm
28/03:30am SSW 5-7 kts 23.2°c 1011.6 hPa 88% 0.0mm
28/03:00am SW 4-6 kts 23.7°c 1011.8 hPa 87% 0.0mm
28/02:30am SSW 5-7 kts 24.4°c 1012.0 hPa 84% 0.0mm
28/02:00am S 5-9 kts 24.7°c 1012.2 hPa 83% 0.0mm
28/01:30am SE 11-16 kts 25.8°c 1012.6 hPa 82% 0.0mm
28/01:00am SE 10-16 kts 25.4°c 1012.9 hPa 81% 0.0mm
28/12:30am SE 11-18 kts 25.6°c 1013.1 hPa 80% 0.0mm
28/12:00am SE 11-17 kts 25.7°c 1013.4 hPa 82% 0.0mm